This is the latest recevied weather packets stored in our database for station/object OK2VOP-6. If no packets are shown the sender has not sent any weather packets the latest 10 day(s).
| Time | Temp. | Humidity | Pressure | Rain* | Wind** | Luminosity | Snow |
|---|---|---|---|---|---|---|---|
| 1788691528 | 21.11° C | 16% | - | 0 mm | - | - | - |
| 1788690323 | 21.11° C | 16% | - | 0 mm | - | - | - |
| 1788689118 | 21.11° C | 17% | - | 0 mm | - | - | - |
| 1788687913 | 20.56° C | 17% | - | 0 mm | - | - | - |
| 1788686709 | 20° C | 20% | - | 0 mm | - | - | - |
| 1788685504 | 19.44° C | 22% | - | 0 mm | - | - | - |
| 1788684299 | 19.44° C | 22% | - | 0 mm | - | - | - |
| 1788683094 | 19.44° C | 22% | - | 0 mm | - | - | - |
| 1788681889 | 18.89° C | 25% | - | 0 mm | - | - | - |
| 1788680685 | 18.33° C | 27% | - | 0 mm | - | - | - |
| 1788679480 | 18.33° C | 29% | - | 0 mm | - | - | - |
| 1788678275 | 17.78° C | 33% | - | 0 mm | - | - | - |
| 1788677070 | 17.22° C | 37% | - | 0 mm | - | - | - |
| 1788675865 | 16.11° C | 40% | - | 0 mm | - | - | - |
| 1788674661 | 15° C | 42% | - | 0 mm | - | - | - |
| 1788673456 | 15° C | 42% | - | 0 mm | - | - | - |
| 1788672251 | 13.89° C | 45% | - | 0 mm | - | - | - |
| 1788671048 | 12.22° C | 50% | - | 0 mm | - | - | - |
| 1788669842 | 11.67° C | 51% | - | 0 mm | - | - | - |
| 1788668637 | 11.67° C | 50% | - | 0 mm | - | - | - |
| 1788667432 | 12.22° C | 48% | - | 0 mm | - | - | - |
| 1788666227 | 12.78° C | 47% | - | 0 mm | - | - | - |
| 1788665023 | 12.78° C | 47% | - | 0 mm | - | - | - |
| 1788663818 | 12.78° C | 45% | - | 0 mm | - | - | - |
| 1788662613 | 13.33° C | 46% | - | 0 mm | - | - | - |
* Rain latest hour (hover to see other rain measurements)
** Current wind speed in m/s (hover to see current wind gust speed)